This demonstration page uses our WeatherBlox Daily Observations layout. Learn more.

Hourly Observations for December 12, 2017

Temp ( °F °C ) Dew Point ( °F °C ) Humidity (%) Winds ( mph kmh ) Pressure ( in mb ) Visibility ( mi km ) Precip ( " mm )
12:53 am 00:53 Mostly Clear 41 5 28 -2.2 60 60 W 13 20 29.75 1008 10 16.0934 0 0
1:53 am 01:53 Cloudy 39 3.9 29 -1.7 67 67 WNW 15 24 29.79 1009 10 16.0934 0 0
2:06 am 02:06 Cloudy 39 3.9 29 -1.7 67 67 WNW 17 28 29.83 1010 10 16.0934 0 0
2:53 am 02:53 Cloudy 37 2.8 30 -1.1 76 76 NW 17 28 29.82 1010 8 12.87472 0 0
3:30 am 03:30 Cloudy 36 2.2 31 -0.6 82 82 W 13 20 29.85 1011 7 11.26538 0 0
3:53 am 03:53 Cloudy with Haze 36 2.2 31 -0.6 82 82 WNW 12 19 29.83 1010 6 9.65604 0 0
4:53 am 04:53 Cloudy with Mist and Fog 35 1.7 33 0.6 93 93 WNW 12 19 29.84 1011 3 4.82802 0 0
5:53 am 05:53 Cloudy 34 1.1 31 -0.6 89 89 WNW 16 26 29.87 1012 7 11.26538 0 0.0254
6:10 am 06:10 Cloudy 34 1.1 30 -1.1 85 85 WNW 16 26 29.88 1012 10 16.0934 0 0
6:53 am 06:53 Cloudy with Light Snow 33 0.6 30 -1.1 89 89 WNW 14 22 29.89 1012 6 9.65604 0 0.0254
7:51 am 07:51 Cloudy with Light Snow 32 0 27 -3 80 80 WNW 15 24 29.97 1015 7 11.26538 0 0.0254
7:53 am 07:53 Cloudy with Light Snow 32 0 27 -2.8 82 82 WNW 15 24 29.92 1013 8 12.87472 0 0.0254
8:12 am 08:12 Windy with Snow Likely 31 -0.6 26 -3.3 82 82 WNW 22 35 29.97 1015 2 3.21868 0 0.0254
8:27 am 08:27 Cloudy with Light Snow 31 -0.6 26 -3.3 82 82 NW 16 26 29.97 1015 6 9.65604 0 0.0254
8:53 am 08:53 Cloudy with Light Snow 29 -1.7 23 -5 78 78 NW 17 28 29.95 1014 5 8.0467 0 0.0254
9:12 am 09:12 Cloudy with Light Snow 30 -1.1 22 -5.6 72 72 NW 17 28 30 1016 9 14.48406 0 0.0254
9:53 am 09:53 Cloudy 30 -1.1 22 -5.6 72 72 NNW 8 13 29.97 1015 10 16.0934 0 0.0254
10:11 am 10:11 Cloudy 30 -1.1 19 -7.2 64 64 WNW 16 26 30.03 1017 10 16.0934 0 0
10:53 am 10:53 Cloudy 29 -1.7 19 -7.2 66 66 WNW 18 30 29.99 1016 9 14.48406 0 0
11:53 am 11:53 Cloudy 29 -1.7 15 -9.4 56 56 NW 18 30 29.99 1016 10 16.0934 0 0.0254
12:53 pm 12:53 Cloudy with Light Snow 27 -2.8 20 -6.7 75 75 NW 15 24 29.98 1015 4 6.43736 0 0.0254
1:01 pm 13:01 Cloudy with Light Snow 27 -2.8 20 -6.7 75 75 NW 16 26 30.03 1017 6 9.65604 0 0.0254
1:53 pm 13:53 Mostly Cloudy 28 -2.2 12 -11.1 51 51 WNW 20 31 29.98 1015 10 16.0934 0 0.0254
2:53 pm 14:53 Cloudy 29 -1.7 12 -11.1 49 49 WNW 17 28 29.98 1015 10 16.0934 0 0.0254
3:53 pm 15:53 Mostly Cloudy 27 -2.8 11 -11.7 51 51 WNW 16 26 29.99 1016 10 16.0934 0 0.0254
4:53 pm 16:53 Cloudy 27 -2.8 11 -11.7 51 51 WNW 13 20 30 1016 10 16.0934 0 0
5:53 pm 17:53 Mostly Cloudy 26 -3.3 10 -12.2 51 51 NW 15 24 30.01 1016 10 16.0934 0 0
6:53 pm 18:53 Mostly Cloudy 25 -3.9 9 -12.8 50 50 NW 21 33 30.04 1017 10 16.0934 0 0
7:53 pm 19:53 Clear 23 -5 9 -12.8 55 55 NW 14 22 30.05 1018 10 16.0934 0 0
8:53 pm 20:53 Clear 21 -6.1 9 -12.8 59 59 WNW 8 13 30.06 1018 10 16.0934 0 0
9:53 pm 21:53 Clear 20 -6.7 9 -12.8 62 62 WNW 7 11 30.05 1018 10 16.0934 0 0
10:53 pm 22:53 Clear 16 -8.9 9 -12.8 74 74 Calm 30.06 1018 10 16.0934 0 0
11:53 pm 23:53 Clear 13 -10.6 9 -12.8 84 84 Calm 30.04 1017 10 16.0934 0 0

Powered by AerisWeather